Hourly Data Report for August 04, 2005

TORONTO CITY
ONTARIO

43°40'00.000" N
79°24'00.000" W
112.50 m
6158355
71508
XTO

Download Data

Hourly Data (August 2005)
Hourly Data Report for August 4, 2005
TIME
LST
Temp Definition
°C
Dew Point Definition
°C
Rel Hum Definition
%
Precip. Amount Definition
mm

Wind Dir Definition
10's deg

Wind Spd Definition
km/h
Visibility Definition
km
Stn Press Definition
kPa
Hmdx Definition


Wind Chill Definition


Weather Definition


00:00 25.6 22.1 81   LegendMM LegendMM   100.21 35   LegendNANA
01:00 24.8 21.6 82   LegendMM LegendMM   100.21 34   LegendNANA
02:00 24.3 21.5 84   LegendMM LegendMM   100.20 33   LegendNANA
03:00 23.6 21.0 85   LegendMM LegendMM   100.19 32   LegendNANA
04:00 23.2 21.2 89   LegendMM LegendMM   100.18 32   LegendNANA
05:00 22.7 21.0 90   LegendMM LegendMM   100.18 31   LegendNANA
06:00 23.1 21.1 89   LegendMM LegendMM   100.21 32   LegendNANA
07:00 24.6 21.5 83   LegendMM LegendMM   100.21 33   LegendNANA
08:00 26.2 22.7 81   LegendMM LegendMM   100.19 36   LegendNANA
09:00 27.6 23.5 78   LegendMM LegendMM   100.18 38   LegendNANA
10:00 29.1 23.5 72   LegendMM LegendMM   100.14 40   LegendNANA
11:00 30.3 23.2 66   LegendMM LegendMM   100.12 41   LegendNANA
12:00 31.5 23.0 61   LegendMM LegendMM   100.04 42   LegendNANA
13:00 32.0 22.4 57   LegendMM LegendMM   99.93 42   LegendNANA
14:00 32.8 22.7 55   LegendMM LegendMM   99.90 43   LegendNANA
15:00 30.9 22.3 60   LegendMM LegendMM   99.92 41   LegendNANA
16:00 30.1 22.5 64   LegendMM LegendMM   99.94 40   LegendNANA
17:00 29.7 23.0 67   LegendMM LegendMM   99.94 40   LegendNANA
18:00 28.7 22.7 70   LegendMM LegendMM   99.88 39   LegendNANA
19:00 28.0 22.6 73   LegendMM LegendMM   99.89 38   LegendNANA
20:00 27.2 22.7 76   LegendMM LegendMM   99.86 37   LegendNANA
21:00 26.5 22.0 76   LegendMM LegendMM   99.89 36   LegendNANA
22:00 26.1 22.1 79   LegendMM LegendMM   99.92 36   LegendNANA
23:00 27.1 22.5 76   LegendMM LegendMM   99.94 37   LegendNANA

Notes on Data Quality.

Legend

  • E = Estimated
  • M = Missing
  • NA = Not Available*
  • [empty] = Indicates an unobserved value
Date modified: